Location: Franzen
(48.6167°N, 15.3833°E)
Time: 22:47:25
(UTC+00:00)

Transit 2A - Pass Details

Date: 05 August 2021
Orbit: 594 x 964 km, 66.7° (Epoch: 26 September)

Event Time Altitude Azimuth Distance (km) Brightness Sun altitude
Rises 09:54:50 0° 324° (NW) 3,116 8.8 55.2°
Reaches altitude 10° 09:58:15 10° 350° (N) 2,276 8.2 55.5°
Maximum altitude 10:01:04 14° 23° (NNE) 2,047 8.2 55.7°
Drops below altitude 10° 10:04:02 10° 55° (NE) 2,411 8.7 55.9°
Sets 10:07:50 0° 79° (E) 3,429 9.5 56.2°
